GFSGL_850_dewp_021.txt.gz
Dewpoint
15 15 15 15 14 15 15 15 15 14 14 15 13 13 13 14 14 14 13 13 14 14 12 13 13 12 13 14 15 15 14 14 14 13 14 14 13 13 13 13 13 13 13
15 15 15 15 15 15 15 15 14 12 14 14 15 14 14 13 13 13 13 15 15 14 14 15 15 15 13 13 13 14 14 13 14 14 14 13 12 13 13 13 12 13 12
15 15 15 15 15 15 15 14 13 14 13 15 14 14 14 14 13 13 13 13 13 13 14 13 14 14 14 14 14 13 13 13 14 13 13 13 13 13 13 12 12 11 11
15 15 15 15 15 15 14 14 14 14 12 12 14 14 13 14 13 13 13 12 12 12 12 13 13 12 12 13 13 12 12 12 12 13 13 13 12 12 12 11 12 12 11
15 14 15 15 15 15 14 13 13 13 11 9 11 14 13 12 11 12 11 12 12 12 12 12 12 13 12 12 12 12 12 12 12 12 12 12 12 11 11 11 11 11 11
14 14 15 15 15 15 14 12 14 10 10 9 9 10 11 10 10 11 12 11 11 11 11 11 11 11 11 11 12 12 12 12 11 11 11 11 11 11 11 11 10 10 10
15 15 15 15 16 15 15 15 13 10 10 9 7 10 9 8 8 10 11 11 11 11 11 11 11 10 9 9 9 9 10 11 11 11 11 11 10 11 10 10 10 9 9
16 16 16 16 16 16 15 15 13 11 10 9 8 9 9 8 8 9 9 11 11 11 11 10 9 8 8 8 6 7 7 8 7 7 9 9 8 8 9 9 9 8 9
15 14 13 14 15 16 15 15 14 11 11 10 11 11 9 8 8 8 10 10 10 9 8 8 6 4 4 6 6 4 4 5 5 5 4 4 4 4 6 8 7 8 7
12 8 6 7 12 15 15 14 14 12 11 10 11 10 9 8 7 8 9 9 9 8 6 5 5 4 5 8 9 8 7 7 6 5 4 3 3 2 3 4 3 4 6
7 7 8 8 10 14 14 14 13 12 12 11 9 9 9 9 9 8 9 9 9 8 7 6 6 6 6 5 6 7 6 4 3 3 1 -2 -2 -1 0 -1 -2 2 3
8 8 9 9 11 13 13 13 13 12 12 11 10 9 10 10 9 9 9 9 8 7 6 6 6 6 6 6 5 4 1 1 1 -2 -3 -3 -3 -2 0 1 -11 -9 0
9 10 10 11 12 12 12 12 12 11 12 11 11 10 10 10 10 9 9 8 7 6 6 5 6 1 -2 -7 -9 -7 -2 -1 -3 -3 -3 -3 -2 -2 -2 -1 0 1 1
10 10 11 11 11 12 11 11 11 10 10 10 10 10 10 10 9 8 8 7 6 5 5 4 -2 -4 -2 -7 -2 -2 -1 -2 -2 -3 -4 -4 -4 -4 -3 -3 -4 -3 -2
10 10 10 11 11 10 10 10 10 9 9 9 9 9 9 8 8 7 6 5 5 4 -0 0 1 -0 -1 -1 -2 -2 -2 -2 -2 -3 -4 -5 -5 -4 -4 -4 -4 -4 -4
9 9 9 9 9 9 9 9 9 9 8 8 8 8 8 8 7 6 6 5 3 -2 1 1 -1 -2 -2 -2 -2 -2 -2 -3 -3 -4 -5 -5 -6 -5 -4 -4 -4 -4 -4
9 9 8 8 7 7 7 7 8 8 7 7 7 7 7 7 6 5 3 -2 -7 -6 0 -1 -1 -2 -2 -3 -4 -4 -3 -2 -4 -4 -5 -6 -6 -6 -6 -6 -5 -5 -5
8 7 5 3 2 2 3 4 4 5 4 4 5 6 5 4 2 -3 -7 -10 -4 -4 -2 -2 -2 -3 -3 -4 -4 -4 -4 -3 -3 -4 -4 -6 -6 -6 -7 -6 -6 -6 -6
-2 -2 -3 -4 -4 -4 -4 -4 -3 -2 -1 1 -0 -2 -2 -4 -6 -9 -7 -2 -1 -4 -5 -4 -3 -3 -3 -3 -3 -2 -2 -4 -4 -4 -4 -4 -5 -5 -6 -7 -7 -9 -11
-2 -2 -3 -2 -2 -3 -2 -2 -3 -2 -2 -2 -2 -2 -2 -8 -3 -4 -5 -2 -3 -4 -5 -4 -4 -3 -3 -3 -3 -2 -2 -2 -3 -4 -3 -4 -5 -5 -6 -7 -7 -7 -6
-2 -1 -2 -2 -2 -2 -2 -2 -2 -2 -4 -5 -4 -3 -3 -3 -3 -3 -3 -3 -3 -3 -4 -4 -4 -4 -3 -3 -2 -3 -3 -4 -4 -4 -4 -4 -5 -5 -5 -6 -7 -7 -7
-1 -1 -1 -1 -0 0 -0 0 -0 -1 -2 -3 -4 -4 -10 -7 -5 -6 -5 -5 -5 -4 -4 -4 -4 -4 -5 -4 -4 -3 -4 -4 -5 -5 -5 -5 -5 -5 -6 -7 -7 -7 -7
-0 -0 0 1 1 1 2 1 0 -0 -0 -1 -2 -3 -4 -6 -6 -6 -6 -5 -5 -4 -4 -4 -4 -4 -5 -6 -5 -4 -4 -5 -5 -5 -5 -4 -5 -5 -6 -6 -9 -8 -8
1 1 2 2 3 2 1 1 1 1 1 0 -1 -1 -2 -2 -3 -3 -3 -3 -3 -3 -3 -3 -3 -3 -4 -5 -5 -5 -5 -5 -5 -5 -5 -5 -4 -5 -6 -6 -10 -9 -8
3 3 3 3 2 2 3 2 2 2 1 1 2 1 1 0 -0 -0 -1 -2 -2 -2 -2 -3 -3 -3 -3 -3 -4 -5 -5 -5 -6 -6 -9 -7 -5 -5 -6 -7 -9 -10 -8
4 3 2 2 2 2 2 2 2 1 1 1 0 1 1 -0 0 1 0 1 1 0 -1 -2 -2 -2 -2 -2 -3 -3 -3 -5 -6 -6 -8 -7 -7 -6 -6 -7 -8 -9 -9

GFSGL_850_dewp_024.txt.gz
Dewpoint
16 15 14 15 15 14 14 14 14 14 14 15 14 14 14 14 14 14 14 14 14 14 13 14 14 13 12 12 12 12 13 13 13 14 14 14 13 13 12 12 12 13 13
16 15 16 15 14 14 14 13 12 14 14 14 14 14 13 14 13 13 13 14 13 14 14 14 14 14 13 13 14 14 14 14 14 13 14 14 14 13 13 12 12 12 12
16 16 15 15 15 14 14 13 14 14 13 13 13 13 13 14 14 13 13 13 13 13 13 13 14 13 13 15 14 13 13 13 14 14 14 13 13 13 12 12 11 11 11
16 15 15 15 14 14 14 14 13 14 13 11 13 13 12 12 14 13 12 12 12 12 12 13 13 12 12 12 12 12 11 11 12 12 13 13 12 11 11 11 11 11 11
15 15 15 14 14 14 14 14 11 11 10 7 12 12 12 10 11 13 13 12 11 11 11 11 11 11 11 12 12 12 12 12 12 12 11 11 11 11 11 11 11 11 10
15 15 14 15 14 14 14 14 13 10 9 12 10 9 8 9 10 11 13 13 12 11 11 11 11 11 11 11 11 11 11 11 11 11 12 11 11 11 11 10 10 10 10
15 14 15 15 14 14 15 14 13 10 11 9 9 7 7 7 8 9 12 12 11 11 11 10 10 10 10 9 8 9 10 10 11 11 10 10 10 10 10 10 9 9 9
16 15 16 16 16 15 15 15 14 13 11 10 7 6 7 7 8 9 11 11 10 10 10 10 8 8 6 5 5 6 6 5 5 7 8 8 8 9 8 7 7 7 6
15 15 13 13 14 15 15 15 14 14 12 11 10 10 7 7 8 9 10 10 9 8 8 7 5 5 7 7 6 5 5 5 5 5 4 4 4 6 7 8 8 8 7
14 13 8 6 9 14 14 14 14 14 12 12 11 9 8 8 7 9 9 9 9 8 5 5 5 5 7 9 8 8 7 7 5 1 -2 -3 -1 2 5 5 4 5 6
9 7 8 9 12 13 14 13 13 13 12 12 11 9 9 9 9 8 9 9 9 8 7 6 5 6 6 6 7 7 5 2 2 2 -2 -2 -1 -2 -8 -5 2 2 2
8 8 9 10 11 13 13 13 13 12 12 12 10 10 9 10 9 9 9 9 9 8 7 7 6 6 6 5 5 4 1 1 -1 -2 -3 -3 -2 -1 -4 -7 -8 -13 2
9 9 10 10 11 12 12 12 12 12 12 11 11 11 10 10 10 10 9 9 9 8 7 6 6 2 -0 -9 -10 -4 -2 -2 -2 -2 -3 -3 -3 -4 -1 -1 -2 -0 1
9 10 10 10 11 12 11 12 11 11 11 10 10 10 10 10 10 9 8 8 7 6 6 4 -1 -2 -2 -2 -1 -1 -1 -1 -2 -2 -3 -3 -3 -3 -3 -3 -3 -3 3
9 9 10 10 10 10 10 10 10 10 10 10 9 9 9 9 8 8 7 6 5 4 0 0 -0 -0 -0 -1 -1 -1 -1 -1 -2 -2 -3 -4 -5 -4 -4 -3 -4 -4 -4
9 9 9 9 9 9 9 9 9 9 9 9 9 8 8 8 8 7 6 6 5 2 1 1 1 -1 -1 -2 -2 -2 -1 -3 -2 -3 -4 -5 -5 -5 -4 -4 -4 -4 -4
9 8 8 8 7 6 6 5 5 7 8 8 8 8 7 7 7 6 6 4 -3 -8 -0 1 -0 -1 -1 -2 -3 -3 -3 -2 -2 -3 -4 -5 -5 -5 -6 -5 -5 -4 -4
8 8 7 5 5 5 6 5 4 4 3 1 4 5 6 6 5 3 -2 -10 -5 -3 -3 -2 -2 -2 -2 -3 -3 -3 -3 -3 -3 -3 -3 -4 -5 -6 -6 -6 -6 -6 -5
-0 -1 -2 -2 -3 -3 -3 -3 -2 -1 1 0 -1 -4 -7 -5 -6 -9 -11 -6 -0 -1 -3 -4 -3 -2 -2 -3 -3 -2 -2 -3 -3 -3 -3 -4 -4 -4 -5 -5 -6 -7 -7
-1 -2 -2 -2 -2 -2 -2 -2 -2 -2 -2 -1 -1 -1 -2 -7 -5 -4 -7 -6 -1 -3 -4 -4 -4 -3 -3 -3 -3 -3 -2 -2 -3 -3 -5 -3 -4 -4 -5 -6 -6 -6 -5
-2 -1 -1 -1 -1 -1 -1 -1 -1 -2 -3 -4 -3 -3 -7 -6 -2 -2 -2 -2 -2 -3 -3 -3 -3 -3 -3 -3 -3 -4 -3 -3 -3 -3 -4 -4 -3 -4 -4 -5 -5 -6 -6
-1 -0 -0 -0 0 0 -0 0 0 -0 -1 -2 -3 -3 -4 -4 -9 -5 -5 -5 -4 -4 -4 -4 -3 -3 -4 -4 -4 -4 -3 -4 -4 -4 -5 -5 -4 -4 -4 -5 -5 -7 -7
0 0 0 1 2 2 3 2 1 1 1 0 -1 -2 -2 -3 -4 -5 -5 -5 -4 -4 -3 -3 -4 -3 -4 -5 -5 -5 -5 -4 -4 -4 -4 -4 -4 -4 -4 -5 -5 -6 -8
1 1 2 3 2 3 2 2 2 1 1 2 2 1 0 -1 -1 -1 -2 -2 -2 -2 -2 -3 -3 -2 -2 -3 -4 -5 -5 -5 -5 -5 -5 -5 -5 -4 -4 -5 -5 -6 -7
3 4 3 3 2 2 3 3 2 2 2 1 2 2 2 2 2 1 1 1 1 1 -0 -1 -1 -1 -2 -2 -2 -3 -4 -5 -5 -5 -5 -5 -6 -8 -6 -5 -5 -6 -7
4 3 2 2 1 1 1 1 1 1 0 -0 -1 -1 -1 -2 -2 -2 -3 -0 0 1 2 1 2 1 1 1 -1 -1 -2 -1 -2 -4 -5 -6 -7 -8 -8 -6 -6 -6 -7

GFSGL_850_dewp_030.txt.gz
Dewpoint
15 13 14 14 14 13 12 10 11 8 11 13 12 12 12 12 12 12 12 13 13 13 13 14 14 13 13 13 13 13 14 13 12 14 14 13 13 13 13 12 12 13 13
15 14 15 14 14 12 10 8 8 7 7 11 12 11 11 12 12 12 12 12 12 12 12 13 13 13 13 13 13 12 12 12 12 13 13 13 13 13 12 12 12 12 12
15 14 14 14 14 12 10 9 8 7 7 9 10 10 9 10 11 11 11 12 12 12 12 12 12 12 12 12 12 12 12 12 13 12 13 13 12 12 12 12 11 11 11
15 14 14 14 14 14 12 10 9 6 4 8 9 9 8 8 10 10 10 10 10 10 10 11 11 11 12 12 12 12 11 11 12 13 13 12 12 11 11 11 11 11 11
15 13 14 14 14 14 13 12 10 8 6 7 8 8 8 7 7 8 8 9 9 9 10 10 10 11 11 12 12 11 12 11 11 13 12 12 11 11 11 11 11 10 10
15 14 15 15 15 15 14 14 12 9 8 7 7 7 7 6 6 7 7 7 8 9 9 9 9 8 9 9 10 10 11 11 11 11 11 11 11 11 10 10 10 10 9
14 15 15 15 15 15 15 14 13 13 11 9 6 7 7 7 7 8 8 8 8 8 8 8 6 5 6 8 8 8 9 9 9 10 10 10 9 9 10 9 9 9 9
14 14 15 15 15 15 15 15 14 14 13 10 7 8 8 8 8 9 9 8 8 8 8 7 6 5 5 5 5 5 5 5 6 8 8 9 9 9 8 8 9 8 6
12 13 13 14 15 15 15 15 15 14 13 11 10 8 8 8 9 9 9 8 8 8 7 6 5 6 7 7 7 6 5 3 2 3 4 5 5 6 7 8 8 7 7
12 12 13 12 8 13 15 14 15 14 13 12 12 9 8 8 9 10 10 9 8 7 7 5 5 6 7 7 7 7 3 -0 -1 -1 -2 -2 -2 -4 -6 6 4 5 8
13 13 10 7 7 12 14 13 14 13 12 12 12 12 9 8 9 9 9 9 9 8 8 7 6 6 7 7 7 7 3 2 2 2 0 -0 -1 -2 -7 -6 0 2 5
13 9 7 6 8 13 13 13 12 12 13 12 12 11 10 9 9 9 9 9 9 8 8 8 6 6 6 5 6 5 2 1 0 -0 -2 0 -3 -4 -3 -2 -2 -2 -2
9 8 8 8 11 13 13 12 12 11 12 12 12 11 10 10 9 9 9 9 9 8 8 6 3 0 -5 -2 -1 -1 -1 -2 -2 -2 -3 -3 -4 -4 -4 -3 -2 -1 1
8 8 9 9 10 11 11 12 12 12 12 11 11 11 10 10 10 9 9 8 8 7 6 2 -1 -2 -2 -2 -2 -3 -4 -2 -2 -3 -3 -3 -4 -4 -4 -4 -3 -3 -3
8 9 9 10 10 11 11 11 11 11 11 11 10 10 10 9 9 8 7 7 6 4 0 -0 -0 -0 -0 -1 -1 -1 -2 -2 -2 -2 -2 -3 -5 -5 -3 -3 -4 -4 -3
9 9 9 9 9 9 9 10 10 9 9 9 9 9 9 9 8 8 7 6 4 1 1 1 0 -1 -1 -2 -2 -2 -2 -1 -2 -2 -2 -3 -5 -5 -5 -5 -4 -5 -4
9 7 5 4 2 0 0 1 -2 2 7 8 8 8 8 7 7 7 6 6 5 -1 0 0 -0 -1 -1 -1 -2 -2 -3 -3 -3 -3 -4 -4 -4 -5 -5 -6 -5 -5 -5
5 5 3 0 2 2 -1 -2 -2 -3 -7 -8 -13 -13 -7 2 4 4 3 -7 -6 -3 -1 -1 -2 -2 -3 -4 -4 -4 -4 -4 -3 -2 -3 -3 -3 -4 -5 -6 -6 -6 -6
6 2 -0 -2 -0 -0 -2 -2 -3 -3 -3 -6 -6 -8 -12 -14 -15 -14 -10 -4 -2 -3 -3 -3 -4 -3 -3 -4 -4 -4 -4 -4 -6 -5 -3 -3 -4 -5 -4 -4 -5 -5 -5
-1 -2 -3 -3 -2 -2 -2 -3 -3 -3 -3 -3 -4 -4 -5 -6 -3 -3 -4 -4 -3 -4 -4 -3 -3 -3 -3 -3 -4 -3 -3 -3 -5 -4 -4 -3 -4 -4 -3 -4 -4 -5 -5
-2 -3 -3 -2 -2 -2 -1 -2 -1 -2 -2 -2 -3 -3 -3 -5 -5 -4 -3 -2 -3 -3 -3 -3 -5 -4 -4 -3 -3 -4 -4 -5 -5 -5 -4 -4 -4 -4 -4 -4 -4 -4 -5
-2 -1 -1 -1 -1 0 0 0 -0 -0 -1 -1 -1 -2 -3 -2 -3 -5 -5 -5 -4 -4 -4 -4 -4 -3 -3 -3 -2 -2 -4 -3 -4 -5 -5 -4 -4 -4 -4 -4 -4 -4 -5
-1 -0 0 -0 0 2 2 2 3 2 2 2 0 -1 -2 -2 -2 -2 -2 -3 -5 -5 -5 -3 -2 -3 -2 -3 -2 -1 -2 -2 -3 -4 -4 -5 -5 -5 -5 -5 -4 -5 -5
0 0 1 2 2 3 3 3 3 2 2 2 2 2 1 -0 -2 -0 1 0 -0 -2 -2 -0 -1 -2 -0 -1 -2 -2 -2 -2 -2 -2 -2 -3 -4 -4 -5 -5 -5 -6 -6
2 2 3 2 3 3 3 2 2 1 0 0 2 2 1 1 2 2 1 1 2 1 1 1 1 1 1 0 1 1 1 1 1 1 1 0 -1 -1 -3 -4 -3 -4 -3
4 3 3 3 2 2 1 -1 -0 0 0 -2 -1 0 -0 0 0 -0 -0 0 1 1 1 2 2 1 0 0 0 0 0 0 0 0 1 2 1 1 1 -1 0 -2 -1

GFSGL_850_dewp_033.txt.gz
Dewpoint
15 12 14 13 13 12 9 9 8 5 6 9 10 11 12 12 11 11 11 12 12 13 14 14 14 14 14 13 13 13 13 13 13 13 14 13 13 13 12 12 12 12 12
15 13 14 14 14 11 9 8 7 5 8 9 9 9 11 11 12 12 12 12 12 12 12 12 12 13 13 13 13 13 13 13 13 13 13 13 13 12 12 12 12 12 12
15 14 14 14 14 12 10 9 7 6 6 8 8 7 9 10 10 11 11 11 11 11 11 11 11 12 12 12 12 13 13 12 12 12 13 12 12 12 12 12 11 11 11
14 15 14 14 14 14 12 10 9 7 5 7 7 7 7 8 9 9 9 9 9 10 10 10 11 11 12 12 12 12 12 12 13 13 13 13 12 12 11 11 11 11 11
12 14 13 14 14 14 13 12 11 8 6 5 7 6 7 7 7 8 8 8 9 9 10 10 10 11 11 11 11 11 11 11 13 12 12 12 12 11 11 11 11 10 10
14 13 13 14 14 14 13 13 12 10 9 6 5 6 7 7 7 7 8 8 8 9 8 7 7 7 8 8 8 9 10 10 11 11 11 11 11 11 11 10 10 9 9
15 14 14 14 13 13 14 13 13 12 11 9 7 6 7 7 8 8 8 8 8 8 8 5 5 5 5 5 5 6 7 8 8 10 10 10 10 10 9 9 9 9 9
14 15 14 13 13 13 12 14 14 13 12 11 9 7 7 8 8 9 8 8 8 7 7 6 6 6 6 6 5 5 5 5 7 9 9 9 9 8 8 9 9 9 8
12 10 13 12 12 12 14 14 14 14 14 12 10 8 7 8 9 9 9 8 7 7 6 6 6 7 7 7 7 5 4 4 3 4 5 4 1 3 7 8 7 7 7
10 12 12 12 13 13 14 14 14 14 13 12 11 10 8 8 9 9 10 9 7 7 7 6 6 6 7 7 7 6 1 0 -1 -2 -2 -2 -3 -4 -8 2 6 4 6
9 12 13 12 9 9 13 13 14 13 13 12 12 12 10 8 8 9 9 9 9 8 8 8 7 6 6 7 7 7 4 2 1 0 -1 -1 -3 -4 -6 -10 -2 2 4
10 14 12 9 9 11 13 14 12 13 13 12 12 11 11 10 8 9 9 10 9 9 8 8 7 6 6 5 5 5 3 2 0 -0 1 0 -3 -4 -3 -3 -2 -3 0
13 11 9 8 11 13 12 12 12 11 11 12 12 11 11 10 10 10 9 9 9 8 8 6 4 -1 -1 -1 -2 -3 -2 -2 -2 -1 -3 -3 -3 -4 -5 -4 -3 -2 -0
10 9 8 9 11 12 12 11 11 11 12 12 11 11 11 10 10 10 10 9 9 7 6 2 -3 -5 -4 -2 -2 -2 -3 -2 -2 -3 -3 -3 -3 -3 -4 -4 -4 -4 -3
9 9 9 9 11 11 11 11 11 11 12 11 11 10 10 10 9 9 8 7 6 6 0 -1 -1 -1 -1 -1 -1 -1 -2 -2 -2 -2 -2 -3 -3 -4 -4 -3 -3 -4 -4
9 9 9 10 10 11 11 10 10 10 10 9 9 9 9 9 9 8 8 7 5 1 0 0 -0 -1 -1 -1 -2 -2 -2 -2 -2 -2 -2 -3 -4 -4 -5 -5 -5 -4 -4
9 8 8 8 7 7 8 7 9 9 9 8 8 8 8 8 8 7 7 6 3 1 1 0 -0 -2 -3 -4 -4 -4 -3 -3 -3 -3 -3 -3 -4 -4 -4 -5 -6 -5 -5
6 4 2 -1 -3 -3 -3 -5 -8 -11 -12 -13 -12 -6 2 5 6 6 5 3 -2 -2 -1 -1 -2 -3 -4 -3 -4 -4 -4 -4 -5 -6 -4 -2 -3 -3 -4 -4 -4 -5 -5
4 1 1 1 -2 -2 -3 -4 -4 -6 -3 -4 -8 -11 -13 -15 -13 -7 -5 -2 -2 -2 -3 -3 -4 -3 -3 -3 -3 -4 -4 -3 -4 -5 -4 -3 -3 -4 -4 -4 -4 -4 -5
3 2 -1 -2 -2 -2 -3 -3 -3 -3 -3 -3 -2 -2 -4 -5 -5 -8 -10 -4 -3 -4 -4 -4 -4 -4 -4 -3 -3 -3 -4 -4 -4 -5 -5 -4 -4 -4 -4 -4 -4 -3 -4
0 -1 -3 -2 -2 -1 -2 -1 -1 -1 -2 -2 -3 -3 -3 -4 -4 -3 -3 -3 -4 -4 -4 -4 -3 -4 -3 -3 -3 -2 -2 -4 -4 -4 -5 -5 -4 -4 -4 -4 -5 -4 -4
-2 -3 -2 -2 -2 -0 0 0 -0 2 1 -0 -2 -3 -3 -2 -4 -4 -5 -5 -4 -3 -3 -3 -3 -3 -4 -3 -3 -2 -1 -2 -2 -3 -3 -4 -4 -5 -5 -5 -5 -4 -4
-3 -2 -1 -1 -0 1 0 1 2 2 1 1 1 -1 -2 -3 -2 -3 -4 -4 -4 -5 -5 -5 -4 -2 -2 -3 -2 -2 -2 -1 -1 -1 -2 -2 -2 -3 -4 -4 -5 -5 -5
-2 -1 -0 -1 2 2 3 3 2 2 2 2 2 2 -1 -2 -2 -2 -1 1 0 1 1 -1 -4 -1 -2 -3 -2 -1 -2 -0 1 1 0 -1 -1 0 1 -1 -3 -3 -4
-1 0 0 1 2 3 3 3 3 2 2 2 1 2 2 1 1 1 2 1 1 1 1 -0 1 1 0 -0 1 1 1 1 1 0 0 1 1 1 1 2 1 1 -0
1 1 1 3 3 2 2 2 2 1 0 0 0 0 0 0 0 1 0 -0 1 1 1 0 1 1 1 1 1 1 0 -1 -1 -2 -2 -2 -1 -0 -0 1 1 0 1

GFSGL_850_dewp_036.txt.gz
Dewpoint
13 12 12 11 11 11 10 9 5 7 9 9 10 11 12 12 12 12 12 11 11 12 13 14 14 14 13 13 13 13 13 13 13 13 13 14 13 13 12 12 12 11 12
7 11 12 11 11 11 9 7 6 7 9 8 8 10 11 11 11 12 11 11 11 12 12 12 12 13 13 13 13 13 13 13 13 13 14 14 13 12 12 12 12 11 12
12 12 12 12 12 12 11 9 7 5 7 7 7 8 9 10 10 9 9 10 9 10 11 11 12 12 12 12 12 13 13 13 13 13 13 13 12 12 12 12 12 11 11
11 12 13 13 14 13 12 11 10 7 5 6 6 7 7 7 8 8 8 8 9 9 10 10 11 11 11 11 11 12 12 12 13 13 13 13 12 12 11 11 11 11 10
11 13 12 14 14 13 13 13 11 9 8 5 6 6 7 7 7 8 8 8 9 9 8 9 9 9 10 10 10 10 10 12 12 12 12 12 12 11 11 11 10 10 10
9 13 13 13 12 12 12 13 12 11 10 8 6 6 7 7 7 8 8 8 8 6 5 6 7 7 7 7 8 8 7 8 11 10 10 11 11 10 10 10 10 9 9
14 13 13 14 13 12 13 12 13 12 11 10 8 7 7 7 8 8 8 8 8 7 5 5 5 5 5 5 5 6 6 7 8 10 9 9 9 9 9 9 9 9 9
13 13 14 14 13 12 13 13 13 13 13 12 10 8 7 8 8 9 8 8 8 7 6 6 6 6 6 6 6 5 5 5 7 8 8 8 8 8 8 8 9 9 8
12 13 14 12 11 11 12 13 13 14 14 12 11 9 8 8 9 9 9 7 7 7 6 6 7 7 7 7 6 4 3 2 2 3 1 -3 -4 -5 -2 7 7 7 7
11 12 13 12 13 12 13 14 14 14 13 13 11 11 8 8 9 9 9 9 8 8 7 6 6 7 7 7 7 6 2 1 -1 -1 -1 -2 -3 -4 -8 -9 3 4 4
12 10 12 12 13 12 13 15 13 14 12 13 12 12 11 10 8 9 9 9 9 8 8 8 7 6 6 6 6 6 4 3 2 1 1 -1 -3 -4 -6 -6 -7 -5 2
10 9 9 12 11 9 10 14 14 13 13 13 12 12 11 11 10 9 9 10 10 9 8 8 6 5 4 2 1 -0 -0 -1 -1 -1 0 -1 -3 -3 -5 -5 -3 -2 -3
11 11 13 11 9 10 11 12 14 11 13 12 12 11 11 10 10 10 10 9 9 9 8 7 4 0 -3 -5 -3 -4 -6 -3 -2 -2 -3 -3 -3 -3 -4 -4 -4 -3 -2
13 13 10 9 10 12 12 12 11 12 11 12 12 11 11 11 10 10 10 9 9 8 7 4 -3 -4 -1 -1 -2 -2 -2 -2 -3 -2 -2 -3 -3 -4 -3 -3 -4 -4 -4
10 9 9 10 12 11 12 12 11 11 11 12 11 11 10 10 10 9 9 8 8 6 3 -0 -1 -1 -1 -1 -1 -2 -2 -2 -1 -2 -2 -2 -3 -4 -4 -4 -4 -4 -4
9 9 10 11 11 10 10 10 11 11 11 11 10 9 9 9 9 8 8 7 6 2 -0 -0 -0 -1 -3 -4 -5 -5 -3 -3 -2 -2 -3 -3 -3 -4 -4 -5 -5 -6 -5
9 9 10 10 10 10 10 10 10 9 9 9 8 8 8 8 8 8 7 6 2 1 1 1 -0 -3 -4 -4 -4 -5 -5 -5 -5 -6 -7 -3 -3 -3 -3 -4 -5 -5 -6
9 9 7 5 4 1 -3 -3 1 5 4 3 4 5 6 6 6 6 6 6 3 0 -0 -1 -3 -4 -4 -3 -3 -4 -4 -4 -4 -6 -6 -4 -3 -3 -5 -4 -4 -4 -5
5 1 -2 -3 -4 -5 -9 -12 -8 -6 -10 -12 -12 -12 -13 -10 -5 1 -3 -4 -4 -3 -2 -3 -4 -4 -4 -4 -4 -4 -4 -4 -4 -5 -5 -5 -4 -3 -4 -4 -3 -3 -4
2 1 -2 -2 -3 -4 -5 -4 -2 -2 -1 -1 -2 -4 -5 -6 -11 -11 -3 -3 -4 -4 -4 -4 -4 -4 -4 -3 -3 -2 -3 -4 -5 -5 -5 -5 -5 -5 -4 -4 -4 -4 -4
3 0 -0 -1 -2 -3 -2 -2 -2 -2 -2 -3 -2 -2 -3 -4 -4 -5 -6 -4 -4 -4 -4 -4 -3 -4 -4 -3 -3 -2 -2 -2 -2 -2 -2 -3 -4 -5 -5 -5 -5 -5 -4
3 0 -2 -2 -1 -1 -1 -1 -1 0 -1 -2 -2 -3 -3 -2 -4 -4 -3 -3 -3 -3 -4 -4 -4 -3 -3 -3 -3 -3 -2 -2 -2 -1 -1 -1 -2 -2 -3 -3 -3 -4 -5
0 -2 -2 -2 -1 -0 -0 -0 0 2 1 1 1 0 -1 -3 -2 -3 -4 -5 -5 -5 -5 -4 -4 -4 -4 -2 -2 -3 -3 -2 -2 -2 0 1 1 0 -1 -1 -0 0 -2
-2 -3 -2 -2 -1 1 1 1 2 2 2 2 2 2 1 -1 -2 -3 -2 -3 -2 1 1 1 1 -1 -3 -2 -2 -2 -2 -0 1 1 1 1 1 1 1 1 1 1 1
-2 -2 -1 -1 -1 1 1 2 2 3 2 2 2 2 2 0 0 1 1 1 2 0 -1 -0 1 1 1 1 1 1 2 1 0 -0 -1 -2 -3 -4 -3 -2 -2 -0 0
-1 -1 -0 0 0 1 2 3 3 2 1 0 1 1 2 3 2 1 -0 0 -0 0 1 1 0 0 0 0 0 -0 -1 -3 -7 -14 -24 -28 -28 -29 -29 -29 -28 -21 -13

GFSGL_850_dewp_042.txt.gz
Dewpoint
11 16 10 13 13 13 13 13 6 5 6 8 10 11 11 11 11 13 13 12 12 12 12 13 13 13 14 13 13 13 13 13 13 14 14 13 13 13 13 12 12 12 12
10 15 11 11 14 13 12 4 5 5 7 8 8 9 10 9 11 11 12 11 10 11 12 12 13 13 13 13 14 13 14 14 14 14 13 13 13 13 12 12 12 12 12
9 15 15 15 15 14 11 6 5 5 6 8 7 7 7 7 7 8 10 10 10 10 11 11 11 11 11 12 12 13 14 14 14 14 13 13 12 12 12 12 11 11 11
13 15 15 16 15 15 13 13 12 8 6 6 7 7 7 7 7 8 8 8 9 10 10 10 10 10 10 12 11 12 13 13 13 13 13 12 12 11 11 11 11 10 10
14 14 15 15 15 14 14 14 13 11 8 6 6 9 10 11 10 9 7 8 8 7 9 7 6 6 6 7 11 12 12 12 12 13 12 12 11 11 10 10 10 10 9
14 15 15 15 15 15 14 12 13 11 9 8 8 8 10 9 7 7 7 6 5 4 5 5 5 6 5 5 5 6 8 12 12 11 11 11 10 10 9 9 9 9 10
14 15 15 15 15 14 14 13 14 13 10 9 10 12 9 8 8 7 7 6 6 5 6 7 8 6 8 8 6 6 6 7 9 10 10 11 10 9 9 9 9 9 9
15 15 15 15 15 15 14 13 14 12 12 10 9 10 8 8 8 8 7 7 6 6 6 6 7 6 6 7 6 4 4 4 4 4 2 3 3 6 7 7 7 7 7
15 14 13 14 13 13 12 13 14 13 13 12 10 10 9 8 9 8 8 8 7 6 6 7 7 7 6 6 5 3 2 0 -1 -2 -3 -4 -6 -7 -9 4 6 5 8
13 11 13 11 10 11 12 14 13 13 13 12 11 10 9 9 9 9 9 9 8 8 7 7 7 7 6 6 6 6 6 5 5 5 3 0 -1 -4 -7 -8 0 0 1
12 11 9 9 10 12 13 13 14 13 13 12 12 10 9 9 9 9 9 9 8 8 7 7 6 6 4 0 -1 4 5 5 3 5 3 2 1 1 1 2 -5 0 1
10 11 11 11 11 11 12 12 14 14 13 12 12 11 11 10 10 9 9 10 9 9 8 7 6 2 -2 -2 -3 -4 -5 -0 2 3 2 1 -1 -1 -0 1 2 -1 0
13 13 12 10 10 10 11 11 14 13 13 13 12 12 11 11 10 10 9 10 10 9 8 6 2 -3 -1 -2 -3 -4 -0 -0 -1 -1 -1 -1 -1 1 0 1 1 2 0
13 12 12 12 12 12 12 13 13 13 13 12 12 11 11 11 10 10 10 10 9 9 8 4 -3 0 2 -0 2 0 -1 -1 -1 -2 -1 -1 -2 -2 -2 -2 -3 -3 -3
13 13 13 12 12 12 13 13 13 13 12 11 11 11 11 10 10 10 10 9 8 8 4 -2 1 4 3 1 0 -1 -1 -1 -2 -2 -2 -2 -3 -3 -3 -2 -2 -3 -4
12 11 11 10 11 12 12 13 12 12 12 11 11 11 10 10 9 9 9 8 7 6 2 3 4 2 -0 -2 -2 -2 -2 -2 -2 -2 -2 -2 -2 -2 -3 -3 -2 -2 -3
11 10 10 10 11 11 12 11 11 12 11 11 11 10 9 8 8 8 8 7 6 2 3 4 2 1 -2 -2 -2 -2 -2 -1 -0 -1 -1 -1 -2 -2 -2 -2 -3 -3 -3
9 9 9 10 10 10 11 11 11 10 10 9 9 8 8 8 8 8 7 6 2 2 3 3 2 -1 -2 -0 -0 -0 -0 -0 -1 -1 -1 -1 -1 -2 -2 -2 -3 -3 -3
9 9 9 10 10 10 10 10 9 9 8 8 8 7 7 7 7 6 6 5 3 2 2 0 -1 -1 -0 0 1 1 -0 -0 -2 -1 -1 -1 -1 -1 -2 -2 -3 -3 -3
10 10 10 9 7 6 5 4 4 3 2 1 1 2 -7 -6 0 3 3 1 0 -1 -1 -1 -1 0 0 1 1 1 1 0 0 -0 -1 -1 -1 -1 -1 -2 -2 -2 -3
9 7 5 2 -0 -1 -2 -3 -2 -1 -1 1 1 0 -2 -1 -2 -1 -2 -2 -2 -2 -2 -1 -1 -1 -1 0 0 0 0 -1 -1 -0 -1 -0 -0 -0 1 -1 -2 -2 -3
7 5 3 2 -0 -1 -0 0 1 1 1 1 0 -0 -1 -0 -1 -2 -1 -2 -1 -1 -1 -1 -1 -1 -1 -1 0 1 -0 -0 -0 1 1 1 1 1 1 1 0 -1 -2
8 6 3 2 2 1 1 1 1 2 1 1 1 1 -1 -1 -0 -0 -0 0 0 1 0 -3 -1 -1 -2 -4 -2 -3 -1 0 0 -1 0 1 1 1 0 -0 -2 -3 -3
9 6 5 4 3 2 2 3 3 3 3 3 3 3 3 2 1 1 -0 -1 -1 -2 -4 -3 -2 -0 -0 -1 -2 -2 -2 -1 -0 0 0 0 -1 -3 -5 -8 -12 -12 -9
9 7 6 4 4 4 4 3 3 3 3 3 3 3 4 4 3 3 2 -1 -2 -1 -1 -0 -1 0 -2 -1 -1 -1 -0 -1 -1 -1 -4 -10 -12 -16 -13 -14 -14 -12 -13
8 7 6 3 3 3 0 2 2 3 4 3 3 2 2 2 1 1 1 2 1 1 1 1 0 -1 -1 -1 -1 -1 -1 -4 -11 -27 -29 -19 -13 -13 -13 -13 -14 -12 -13

GFSGL_850_dewp_045.txt.gz
Dewpoint
13 15 15 15 15 14 14 14 14 14 15 15 14 14 14 12 10 14 13 12 14 15 15 15 15 14 14 13 13 13 13 14 14 13 13 13 13 13 13 12 12 11 11
11 15 15 15 15 14 14 14 14 14 14 14 14 14 14 13 13 13 13 13 12 12 12 13 14 13 13 14 14 14 14 14 13 13 13 13 13 12 12 12 12 12 12
10 15 15 15 15 14 14 14 14 13 13 13 13 13 13 13 13 13 13 13 12 11 12 11 11 12 13 13 14 14 14 14 14 13 13 12 12 12 12 12 11 11 11
13 14 15 15 15 15 15 15 14 13 13 13 13 13 12 12 12 12 12 12 12 12 8 8 7 8 12 13 13 13 13 13 13 13 13 12 12 11 11 11 11 11 10
15 15 15 16 15 15 15 15 14 14 14 13 13 13 12 12 11 10 12 12 11 12 10 5 5 5 6 9 12 12 11 11 13 12 12 12 11 11 11 10 10 10 9
13 14 16 15 16 15 15 15 14 14 14 14 13 13 12 9 7 7 10 10 10 10 10 10 8 7 5 5 6 9 11 12 11 11 11 10 10 9 9 10 9 9 10
14 14 15 15 15 15 15 15 14 14 14 13 13 13 12 8 8 7 8 10 10 9 10 10 9 10 11 9 7 6 7 9 11 11 10 10 10 10 10 9 10 10 10
14 14 15 15 15 15 15 15 14 14 13 11 13 13 12 8 8 7 8 11 11 11 11 9 6 6 7 9 4 3 2 4 5 4 3 2 1 2 8 7 5 6 7
13 14 14 15 16 15 15 14 15 14 14 12 12 13 11 8 8 8 10 11 11 11 9 8 8 6 6 6 6 4 2 1 -1 -2 -3 -4 -6 -9 -10 3 7 3 5
9 13 15 14 15 15 12 14 14 14 14 13 13 13 12 8 8 9 10 10 10 10 9 7 7 7 6 6 9 8 8 7 6 6 4 3 3 1 -0 -6 2 1 1
10 14 14 13 13 12 12 14 14 14 14 13 12 12 10 10 9 9 9 9 8 9 9 9 7 6 4 1 1 5 7 5 4 6 5 3 2 1 2 3 -5 2 1
12 12 12 11 13 11 13 14 14 14 14 13 12 11 11 10 10 9 9 9 9 9 8 8 7 4 1 -0 -1 -5 -3 2 2 3 3 2 -0 -0 0 3 4 -1 0
12 12 11 12 12 13 14 13 15 14 13 13 12 12 11 11 10 9 9 9 9 10 9 8 5 -0 1 0 -5 -3 0 1 -0 -0 -0 -0 -0 1 -0 1 -0 1 1
14 13 13 13 12 11 12 13 14 13 13 12 12 11 11 11 10 10 10 10 10 10 8 7 2 0 3 3 2 1 -0 -1 -0 -1 -1 -1 -1 -1 -1 -1 -2 -2 -2
13 13 13 12 13 12 12 12 13 13 13 12 12 11 11 11 10 10 9 9 9 6 8 4 -1 3 4 3 1 -0 -0 0 -1 -1 -1 -1 -2 -2 -2 -2 -1 -1 -2
13 12 12 12 12 12 12 13 13 13 12 12 12 11 11 10 10 10 9 9 8 7 4 2 4 4 2 -1 -1 -1 -1 -1 -0 -0 -0 -1 -1 -1 -1 -1 -2 -2 -2
11 11 11 11 11 11 12 12 12 12 12 12 12 11 11 10 10 8 8 8 8 6 4 4 4 2 0 -1 -2 -2 -1 -0 -0 -0 -1 -1 -1 -1 -1 -2 -2 -2 -2
10 11 11 11 11 11 11 12 11 11 12 11 11 11 10 9 8 8 8 7 6 3 4 4 3 2 -1 -1 -0 0 0 1 0 -0 -0 -1 -1 -1 -2 -2 -3 -2 -3
11 11 10 11 11 11 10 11 11 11 10 9 9 9 8 8 8 8 7 6 4 3 3 3 2 0 -1 0 1 1 1 1 -1 -1 -0 -0 -1 -1 -2 -2 -2 -2 -2
10 10 10 11 10 10 10 10 10 9 9 8 7 7 5 6 6 6 6 5 4 2 2 1 0 -0 1 1 2 2 1 1 1 1 -0 -1 -1 -0 -1 -1 -1 -2 -2
11 10 9 10 10 8 7 7 6 6 4 2 1 3 -2 -1 2 2 3 2 0 -0 -0 -1 -1 0 1 2 1 1 0 -1 -1 -1 -1 -0 -0 -1 -1 -1 -2 -1 -1
10 9 8 6 3 1 0 -1 -2 -2 -1 0 1 1 -1 0 -1 -0 -0 -1 -1 -1 -1 -1 -0 -1 -1 -0 0 1 0 -1 -1 -1 -0 1 0 -0 -1 -1 -1 -1 -2
9 8 6 4 3 0 -1 -0 -0 0 0 1 1 1 0 0 0 -0 -0 -0 -0 0 1 1 1 -0 -0 1 1 0 0 0 1 1 2 1 1 -0 -1 -2 -3 -4 -5
9 7 7 4 3 2 1 0 1 1 1 1 1 1 0 0 0 1 1 1 1 2 2 1 0 -0 -0 1 1 1 -0 -2 -3 -0 -0 -0 -1 -2 -5 -7 -11 -13 -12
9 8 7 5 4 3 3 2 2 3 3 4 4 4 4 4 3 3 2 2 2 2 -0 -1 1 2 2 1 -0 -1 -3 -2 -2 -1 -1 -3 -7 -10 -10 -11 -11 -12 -11
9 9 9 7 5 5 4 4 4 5 5 4 4 4 4 4 4 3 3 2 2 1 2 2 2 1 1 0 -0 -2 -1 -1 -1 -4 -15 -28 -13 -11 -11 -11 -11 -12 -12

GFSGL_850_dewp_048.txt.gz
Dewpoint
15 14 15 15 14 11 13 12 11 13 14 14 14 14 14 13 13 14 13 11 12 13 14 14 14 14 14 13 14 13 14 14 14 13 13 13 13 13 13 12 11 11 11
14 13 13 14 14 14 14 10 13 14 13 14 14 13 12 13 13 13 12 11 11 13 13 13 13 12 12 13 14 14 14 14 13 13 13 13 13 12 12 12 12 11 11
12 13 14 15 15 14 14 13 12 13 13 13 13 13 13 13 13 13 13 12 10 11 10 11 13 13 13 13 13 13 14 13 13 13 13 12 12 12 12 12 11 11 11
14 15 14 15 15 14 14 14 13 13 13 13 13 13 13 13 12 12 12 12 11 6 5 5 9 11 12 12 12 11 13 13 13 12 13 12 12 12 11 11 11 11 10
13 14 15 15 14 15 14 14 14 14 13 12 13 13 12 11 9 12 12 11 11 7 5 5 5 6 8 9 11 11 11 12 13 13 12 12 12 11 11 10 10 9 9
15 13 14 15 14 14 14 14 14 14 12 13 13 13 11 7 7 10 10 8 9 9 8 8 9 7 5 6 10 12 12 10 10 11 10 10 9 9 8 9 8 8 8
13 14 14 13 15 15 15 15 14 13 12 13 13 12 10 7 7 7 10 10 9 9 10 9 10 10 8 5 5 6 8 9 10 10 11 10 10 10 9 9 9 10 9
14 14 14 13 13 13 14 15 15 14 13 12 13 13 11 8 8 7 9 10 9 9 8 7 6 7 7 4 3 3 3 4 4 8 6 5 0 4 8 6 7 7 7
15 14 14 13 14 13 13 14 14 14 14 12 13 12 11 8 8 8 10 11 10 10 9 7 6 6 6 7 5 4 3 2 0 -1 -2 -3 -3 -7 -6 4 6 3 4
14 14 12 11 13 15 15 14 14 14 14 14 13 13 12 8 8 8 10 11 10 10 8 7 7 7 6 7 9 8 8 7 7 4 3 2 2 2 1 -10 1 1 2
12 10 9 11 14 13 13 13 14 14 14 14 13 13 12 10 8 9 10 11 10 9 10 9 7 6 5 4 4 8 9 1 5 6 5 2 2 3 2 -0 -8 -5 1
11 9 10 12 13 12 11 12 13 14 14 14 13 13 12 10 9 9 9 9 9 10 9 8 7 6 3 1 -0 -5 -3 3 3 3 3 2 0 1 1 -1 -1 -1 -2
11 12 13 12 11 11 11 13 13 14 14 14 13 12 12 11 10 10 9 9 9 9 9 9 8 6 1 0 -3 -2 1 1 0 0 0 0 0 -0 -1 -0 -2 -1 -2
12 11 10 11 11 11 12 13 13 13 13 14 13 12 11 11 10 10 9 9 9 9 9 9 7 3 2 3 1 1 0 -1 -0 -0 -0 -0 -1 -1 -1 -1 -1 -1 -2
14 13 13 13 13 12 12 12 12 13 13 13 13 13 12 11 11 9 10 10 10 9 9 8 6 1 4 4 2 1 1 0 -0 -1 -1 -1 -1 -1 -1 -1 -1 -1 -1
13 13 13 12 12 12 12 12 12 13 13 13 12 12 12 11 11 10 9 9 8 8 7 7 3 4 5 5 2 0 -0 -1 0 0 0 -0 -1 -1 -2 -1 -1 -1 -1
12 12 12 11 12 11 11 12 12 12 12 12 12 12 12 11 10 10 10 9 9 8 7 3 4 5 4 0 -1 -1 -0 0 -2 0 -0 -0 -1 -1 -1 -1 -2 -2 -2
10 11 11 12 11 11 11 11 12 12 12 12 12 12 12 11 11 10 9 8 8 8 6 4 5 5 2 -1 -1 -1 0 1 1 0 0 -0 -0 -0 -1 -1 -2 -2 -2
12 11 11 11 11 10 10 10 11 11 11 11 11 11 11 11 10 9 8 8 8 7 4 4 4 3 1 -0 0 1 1 1 1 -0 -2 -0 -0 -1 -1 -1 -1 -0 -1
11 10 10 9 10 10 10 11 10 10 10 10 10 8 9 10 9 8 8 8 6 5 3 3 4 2 0 0 1 2 2 0 1 1 1 1 -0 -0 -0 -1 -1 -2 -1
11 11 11 9 9 11 10 10 10 10 10 11 9 7 3 6 4 6 7 7 5 5 4 2 1 1 0 1 2 2 1 1 1 1 -0 -1 0 1 -0 -0 -1 -1 -1
10 10 10 10 9 9 9 8 8 8 8 8 4 2 2 -6 3 3 3 2 1 1 0 0 -0 0 0 1 2 1 1 1 -0 -0 -0 0 0 -0 0 -0 -1 -1 -1
10 10 10 9 7 6 4 1 -0 -1 -1 -1 1 2 1 -1 1 1 1 0 0 -0 0 -0 0 0 0 -0 1 1 2 1 1 0 0 -0 -1 0 1 -0 -1 -2 -4
9 9 9 9 6 4 2 1 -0 1 0 0 1 1 1 -0 0 1 0 0 0 0 1 1 1 1 0 1 1 1 1 0 -1 -0 -1 -3 -3 -2 -1 -3 -5 -7 -11
9 9 9 9 6 5 4 3 2 2 4 4 4 2 1 1 4 3 3 1 1 2 2 2 2 1 1 0 0 1 1 1 -1 -2 -2 -2 -1 -3 -6 -11 -12 -10 -10
10 9 9 10 8 6 4 4 2 2 4 5 5 4 5 5 6 6 5 3 2 2 2 2 2 1 2 3 3 2 1 -0 -1 -1 -1 -3 -10 -22 -12 -10 -10 -10 -10